DECAYED

STARLINK-1887, 47170 (Decayed)

Orbit data source: Space-Track

STARLINK-1887, 47170 was a payload satellite owned by SpaceX/Seattle (US) in LEO that was launched on Wed, 25 Nov 2020 UTC via an FALCON 9 launch vehicle from the Air Force Eastern Test Range (AFETR). Payload-class satellites include a variety of spacecraft equipped with specific instruments for various scientific and technological missions. These include communications satellites like Starlink; space stations such as the ISS; scientific satellites like the Hubble; Earth observation satellites from companies like Planet Labs, Umbra, and HawkEye 360; GPS; miniature CubeSats for education and research; and military/defense satellites.

Not visible in the next 10 days
Identifier
47170, 2020-088BA
Orbit
Decayed
Country
Flag of USUS
Related business
Manufacturer
SpaceX/Seattle
Mission
Decayed Commercial Communications
Bus & Motor
STARLINK, Unknown motor
Mass
260 kg wet, ~248 kg dry
Launch date (UTC)
2020-11-25 (6 years ago)
Launch vehicle
FALCON 9
Launch site
Air Force Eastern Test Range (AFETR)
Object type
Payload
Rocket body
Debris
Shape & HBR
Box + 1 Pan, 10.1 m
Radar Cross Section
13.562 m², Large (>1 m²)

Expand to show TLE details & history
Last TLE update: 1 year ago

TLE from 1 year ago
0 STARLINK-1887
1 47170U 20088BA  25028.20181351  .23136002  12485-4  63805-3 0  9991
2 47170  53.0315 288.0565 0004671 250.6195 250.8518 16.45351641231481
Epoch: 2025-01-28T04:50Z
TLE epoch observation values (Epoch: 2025-01-28T04:50:36.687Z)
Latitude
29.98054°
Longitude
-117.88424°
Altitude
154.292 km
Speed
7.817 km/s
True Right ascension
05h 29m 55s
True Declination
29° 49' 05"
Sunlit
Object was in full shadow at epoch
Visualization orbit readout
Latitude
Unknown
Longitude
Unknown
Altitude
Unknown
Speed
Unknown
Apparent Right ascension
Unknown
Apparent Declination
Unknown
Sunlit
N/A
Visualization observer readout
Local Sidereal Time
21:26:04
Azimuth
Unknown
Elevation
Unknown
Doppler factor
Unknown
Orbital elements
Apogee altitude
154.946 km
Perigee altitude
148.845 km
Semi-major axis
6,530.033 km
Eccentricity
0.00047
Inclination
53.0315°
RAAN
288.0565°
Arg. of periapsis
250.6195°
True anomaly
250.80125°
Mean anomaly
250.8518°
Eccentric anomaly
250.82652°
Mean motion
4.11311 °/min
Orbital period
87.53 mins
BSTAR
0.00063805
Loading maneuver chart data...
Computing Atmospheric mass density...

Documentation

Showing up to 5 results
|